TimeEST,TemperatureF,Dew PointF,Humidity,Sea Level PressureIn,VisibilityMPH,Wind Direction,Wind SpeedMPH,Gust SpeedMPH,PrecipitationIn,Events,Conditions,WindDirDegrees,DateUTC
12:58 AM,46.0,32.0,58,30.11,10.0,SW,13.8,21.9,N/A,,Clear,230,2013-01-24 05:58:00
1:58 AM,48.0,36.0,63,30.07,10.0,SW,17.3,-,N/A,,Clear,230,2013-01-24 06:58:00
2:58 AM,50.0,37.0,61,30.04,10.0,WSW,16.1,26.5,N/A,,Clear,240,2013-01-24 07:58:00
3:58 AM,51.1,37.0,59,30.00,10.0,WSW,16.1,27.6,N/A,,Clear,250,2013-01-24 08:58:00
4:58 AM,48.9,37.9,66,29.99,10.0,West,15.0,23.0,N/A,,Clear,260,2013-01-24 09:58:00
5:58 AM,46.9,37.0,68,29.99,10.0,West,11.5,-,N/A,,Clear,260,2013-01-24 10:58:00
6:58 AM,46.9,35.1,63,30.00,10.0,West,16.1,-,N/A,,Clear,280,2013-01-24 11:58:00
7:58 AM,45.0,34.0,65,30.03,9.0,West,17.3,-,N/A,,Clear,280,2013-01-24 12:58:00
8:58 AM,43.0,32.0,65,30.09,9.0,NNW,24.2,32.2,N/A,,Clear,330,2013-01-24 13:58:00
9:58 AM,39.9,25.0,55,30.15,10.0,North,18.4,27.6,N/A,,Clear,350,2013-01-24 14:58:00
10:58 AM,41.0,19.9,43,30.19,10.0,North,18.4,29.9,N/A,,Clear,350,2013-01-24 15:58:00
11:58 AM,39.0,17.1,41,30.21,10.0,North,20.7,31.1,N/A,,Clear,350,2013-01-24 16:58:00
12:58 PM,37.9,17.1,43,30.23,10.0,North,23.0,29.9,N/A,,Clear,350,2013-01-24 17:58:00
1:58 PM,37.0,14.0,39,30.26,10.0,North,20.7,31.1,N/A,,Clear,360,2013-01-24 18:58:00
2:58 PM,34.0,10.9,38,30.33,10.0,North,17.3,33.4,N/A,,Clear,350,2013-01-24 19:58:00
3:58 PM,34.0,7.0,32,30.37,10.0,North,20.7,29.9,N/A,,Clear,350,2013-01-24 20:58:00
4:58 PM,30.9,6.1,35,30.42,10.0,North,15.0,24.2,N/A,,Clear,10,2013-01-24 21:58:00
5:58 PM,28.9,6.1,38,30.47,10.0,North,17.3,23.0,N/A,,Clear,10,2013-01-24 22:58:00
6:58 PM,28.0,5.0,38,30.49,10.0,North,15.0,24.2,N/A,,Clear,360,2013-01-24 23:58:00
7:58 PM,28.0,3.9,36,30.50,10.0,North,12.7,21.9,N/A,,Clear,10,2013-01-25 00:58:00
8:58 PM,27.0,5.0,39,30.51,10.0,North,11.5,-,N/A,,Clear,10,2013-01-25 01:58:00
9:58 PM,26.1,7.0,44,30.52,10.0,North,8.1,-,N/A,,Clear,10,2013-01-25 02:58:00
10:58 PM,26.1,7.0,44,30.51,10.0,North,10.4,-,N/A,,Clear,10,2013-01-25 03:58:00
11:58 PM,26.1,9.0,49,30.51,10.0,NNE,10.4,-,N/A,,Clear,20,2013-01-25 04:58:00